STARLINK-11308, 61246

Orbit data source: Space-Track

STARLINK-11308, 61246 is a payload satellite owned by SpaceX/Seattle (US) in LEO that was launched on Wed, 25 Sep 2024 UTC via an FALCON 9 launch vehicle from the Air Force Western Test Range (AFWTR). Payload-class satellites include a variety of spacecraft equipped with specific instruments for various scientific and technological missions. These include communications satellites like Starlink; space stations such as the ISS; scientific satellites like the Hubble; Earth observation satellites from companies like Planet Labs, Umbra, and HawkEye 360; GPS; miniature CubeSats for education and research; and military/defense satellites.

Loading next visibility...
Identifier
61246, 2024-175D
Orbit
LEO
Last TLE update
1 day ago
Origin
Manufacturer
SpaceX/Seattle
Mission
Operational Commercial Communications
Bus & Motor
STARLINK V2M, Unknown motor
Mass
730 kg wet, ~700 kg dry
Launch date (UTC)
2024-09-25 (9 months ago)
Launch vehicle
FALCON 9
Launch site
Air Force Western Test Range (AFWTR)
Object type
Payload
Rocket body
Debris
Shape & HBR
Box + 2 Pan, 29 m
Radar Cross Section
36.964 m², Large (>1 m²)

Expand to show TLE details & history

TLE from 1 day ago
0 STARLINK-11308
1 61246U 24175D   25188.02762049  .00000562  00000-0  95024-5 0  9990
2 61246  53.1585 187.2053 0001278  78.4793 281.6368 15.69704655 44785
Epoch: 2025-07-07T00:39Z
TLE epoch observation values (Epoch: 2025-07-07T00:39:46.41Z)
Latitude
-0.00004°
Longitude
-107.98096°
Altitude
360.483 km
Speed
7.694 km/s
True Right ascension
12h 28m 49s
True Declination
0° 00' 00"
Sunlit
Object was in daylight at epoch
Visualization orbit readout
Latitude
48.74117°
Longitude
-56.18831°
Altitude
364.412 km
Speed
7.697 km/s
Apparent Right ascension
11h 25m 34s
Apparent Declination
12° 37' 51"
Sunlit
Object is in daylight
Visualization observer readout
Local Sidereal Time
19:36:42
Azimuth
301.704° NW
Elevation
-15.363°
Doppler factor
1
Orbital elements
Apogee altitude
360.864 km
Perigee altitude
359.142 km
Semi-major axis
6,738.14 km
Eccentricity
0.00013
Inclination
53.1585°
RAAN
187.2053°
Arg. of periapsis
78.4793°
True anomaly
Unknown
Mean anomaly
281.6368°
Eccentric anomaly
Unknown
Mean motion
3.92404 °/min
Orbital period
91.74 mins
BSTAR
0.0000095024
Loading maneuver chart data...
Loading SW <> Apogee altitude chart data...
Loading historical data...
Loading historical data...
Loading historical data...
Loading historical data...
Loading historical data...
Loading historical data...
Loading historical data...

STARLINK-11308 Visibility forecast

Observer location: undefined°, undefined°

Span
Click to sort rows by Start time (UTC) header in descending order
Start Az.
Max El. time (UTC)
Max El. Az.
Max El.
End time (UTC)
End Az.
4 mins2025-07-08 09:16:08.542Z316.369° NNW2025-07-08 09:17:08.542Z4.779° NNE44.46°2025-07-08 09:20:08.542Z127.739° SE
|